Powrót do katalogu

COSMOS 1275 DEB

AktywnyPO
NORAD 17618·DEBRIS·🇷🇺 Russia

Wystrzelony Jun 4, 1981 z Plesetsk Cosmodrome

Loading…

Następne Przeloty (najbliższe 24 godziny)

TLE

ŚwieżeSource: Space-Track

Epoka: Sep 14, 2026, 11:19 UTC

1 17618U 81053KM  26257.47160286  .00001358  00000-0  70795-3 0  9994
2 17618  82.8435  68.2138 0046990 278.8986 109.7309 14.13378810106618

Śledź COSMOS 1275 DEB w czasie rzeczywistym z AllMySat

Download on the App Store